CREW DRAGON DEMO-2 (45623 NORAD) Tracking and Keplerian Element Data

This shows tracking and keplerian element data for the satellite.

Feedback or suggestion? Click here.




ElementValue
Catalog45623
NameCREW DRAGON DEMO-2
Epoch Orbit982
Epoch Day215.16517718
Epoch Year2020
RAAN120.9009
Inclination51.6448
Eccentricity7.93E-05
Argument of Perigee19.3431
Mean Anonmoly143.0614
Mean Motion15.52692433
Decay Rate-0.00946748
L11 45623U 20033A 20215.16517718 -.00946748 00000-0 -16413-1 0 9990
L22 45623 51.6448 120.9009 0000793 19.3431 143.0614 15.52692433 9829



Live tracking and technical data element details for CREW DRAGON DEMO-2 (NORAD 45623). CREW DRAGON DEMO-2 can be tracked NOW for your location showing map with azimuth and elevation plus other details from your city location.







IsCatalogInMostPopularTable: catalog: 45623, numindb: 1178
Update: records affected: 1



GetName: 45623 CREW DRAGON DEMO-2

Hit Count: updated at: Thu, 19 Jun 2025 09:17:56 GMT